Regional Weather Roundup
Issued by NWS

Home | Current Version | Previous Version | Text Only | Print | Product List | Glossary On
Versions: 1 2 3 4 5 6 7 8 9 10 11 12 13 14 15 16 17 18 19 20 21 22 23 24 25 26 27 28 29 30 31 32 33 34 35 36 37 38 39 40 41 42 43 44 45 46 47 48 49 50
000
ASUS45 KREV 300010
RWRNV
NEVADA REGIONAL WEATHER ROUNDUP
NATIONAL WEATHER SERVICE RENO NV
500 PM PDT FRI APR 29 2016

NOTE: "FAIR" INDICATES FEW OR NO CLOUDS BELOW 12,000 FEET WITH NO
SIGNIFICANT WEATHER AND/OR OBSTRUCTIONS TO VISIBILITY.

NVZ001-003-004-300100-
WESTERN NEVADA

CITY           SKY/WX    TMP DP  RH WIND       PRES   REMARKS
RENO           PTSUNNY   66  25  21 NW14G28   29.86R
6HR MIN TEMP:  59; 6HR MAX TEMP:  69;

CARSON CITY    FAIR      63  27  25 SW18G31   29.88F
MINDEN         FAIR      61  28  29 W18G30    29.91S
SLIDE MTN        N/A     34  23  64 W30         N/A
PYRAMID LAKE     N/A     61 N/A N/A NW6         N/A
FALLON         CLOUDY    59  30  33 NW22G30   29.86R
6HR MIN TEMP:  59; 6HR MAX TEMP:  68; 6HR PCP: TRACE;

LOVELOCK       PTSUNNY   64  26  23 N22G32    29.84R
6HR MIN TEMP:  60; 6HR MAX TEMP:  69;

HAWTHORNE      MOSUNNY   70  18  13 W16G31    29.80F
$$

NVZ002-CAZ072-073-300100-
NORTHERN AND CENTRAL SIERRA

CITY           SKY/WX    TMP DP  RH WIND       PRES   REMARKS
S. LAKE TAHOE  MOSUNNY   50  29  44 SW15G21   29.95F
6HR MIN TEMP:  50; 6HR MAX TEMP:  54;

TRUCKEE        MOSUNNY   54  30  40 W15G22    29.95F
                   6HR MAX TEMP:  57;

SQUAW VLY 8000   N/A     37  30  75 W12         N/A
SUSANVILLE     MOSUNNY   55  34  44 NW20G28   29.92R
BLUE CANYON    MOSUNNY   50  31  48 SW6G23    29.99F
MAMMOTH LAKES  PTSUNNY   52  26  35 W15G23    29.96F
6HR MIN TEMP:  51; 6HR MAX TEMP:  61;

BRIDGEPORT     LGT RAIN  47  30  51 SW14G24   29.93F
$$

NVZ030-031-036-300100-
NORTHERN NEVADA

CITY           SKY/WX    TMP DP  RH WIND       PRES   REMARKS
ELKO           CLOUDY    46  37  71 SW5       29.87S
6HR MIN TEMP:  42; 6HR MAX TEMP:  48; 6HR PCP:  0.16;

WINNEMUCCA     CLOUDY    49  37  63 N21G29    29.88R
6HR MIN TEMP:  49; 6HR MAX TEMP:  61; 6HR PCP: TRACE;

WENDOVER       PTSUNNY   52  39  62 SW14      29.83F
$$

NVZ035-037-300100-
CENTRAL NEVADA

CITY           SKY/WX    TMP DP  RH WIND       PRES   REMARKS
ELY            CLOUDY    44  35  70 E6        29.89F
6HR MIN TEMP:  38; 6HR MAX TEMP:  49; 6HR PCP:  0.07;

EUREKA           N/A     51  35  54 NE5       29.85F
6HR MIN TEMP:  43; 6HR MAX TEMP:  51; 6HR PCP:  0.03;

$$

NVZ013-014-300100-
SOUTH CENTRAL NEVADA

CITY           SKY/WX    TMP DP  RH WIND       PRES   REMARKS
TONOPAH        PTSUNNY   60  25  26 NW12      29.85F
6HR MIN TEMP:  56; 6HR MAX TEMP:  63;

$$

NVZ017-020-022-300100-
SOUTHERN NEVADA

CITY           SKY/WX    TMP DP  RH WIND       PRES   REMARKS
LAS VEGAS      PTSUNNY   76  35  22 E13G18    29.70F
6HR MIN TEMP:  67; 6HR MAX TEMP:  77;

N. LAS VEGAS   PTSUNNY   75  35  23 S6        29.74F
6HR MIN TEMP:  56; 6HR MAX TEMP:  75;

NELLIS AFB     PTSUNNY   75  36  23 S9G21     29.72F
6HR MIN TEMP:  67; 6HR MAX TEMP:  76;

HENDERSON      CLOUDY    77  29  17 NW9       29.77F
6HR MIN TEMP:  68; 6HR MAX TEMP:  77;

MERCURY        MOSUNNY   72  27  18 SW12G21   29.77F
6HR MIN TEMP:  65; 6HR MAX TEMP:  75;

$$



USA.gov is the U.S. government's official web portal to all federal, state and local government web resources and services.